[[{"header":{"parameterUnit":"m.s-1","parameterCategory":1,"la1":30.2991,"la2":30.254,"lo1":-89.0895,"lo2":-89.0444,"dy":0.0017,"dx":0.0017,"nx":28,"ny":28,"refTime":"2025-07-20T21:00:00:Z","depth":0,"parameterNumber":2,"parameterNumberName":"U-component_of_WINDS"},"data":[0,0,0,0,0,0,0,0,0,0,0,0,0,0,0,0,0,0,0,0,0,0,0,0,0,0,0,0,0,0,0,0,0,0,0,0,0,0,0,0,0,0,0,0,0,0,0,0,0,0,0,0,0,0,0,0,0,0,1.0637,1.0639,0,1.0781,1.0782,1.0784,1.0838,1.0837,1.0837,1.0836,1.0983,1.0987,1.0991,0,0,0,0,0,0,0,0,0,0,0,0,0,1.0409,1.0412,1.0637,1.0639,1.0641,1.078,1.0782,1.0784,1.0838,1.0837,1.0837,1.0836,1.0981,1.0986,1.0992,0,0,0,0,0,0,0,0,0,0,0,0,0,1.0525,1.0414,1.0637,1.0684,1.069,1.078,1.0782,1.0785,1.0838,1.0837,1.0837,1.0836,1.098,1.0986,1.0992,1.1046,0,0,1.1012,1.1015,0,0,0,0,0,0,0,0,1.0519,1.0534,1.0676,1.0681,1.0688,1.0791,1.0756,1.0872,1.0838,1.0782,1.0836,1.0836,1.0919,1.0931,1.0959,1.1052,1.1059,1.1013,1.1017,1.1019,1.1021,0,0,0,0,0,0,0,1.0511,1.0528,1.0694,1.0678,1.0685,1.0698,1.0714,1.0778,1.0852,1.0787,1.0791,1.0807,1.0923,1.0953,1.0963,1.1061,1.1012,1.1018,1.1022,1.1025,1.1204,1.1205,0,0,0,0,0,0,1.0495,1.0521,1.0689,1.0698,1.06,1.0703,1.072,1.0758,1.0852,1.0866,1.0807,1.0809,1.0942,1.0955,1.0968,1.1036,1.1019,1.1025,1.1029,1.1203,1.1205,1.1206,0,0,0,0,0,0,1.049,1.0509,1.0684,1.0611,1.0634,1.0707,1.0749,1.0761,1.0792,1.0868,1.0881,1.0825,1.0942,1.0959,1.1026,1.1042,1.1028,1.1034,1.1202,1.1204,1.1205,1.1173,0,0,0,0,0,0,1.0483,1.0507,1.0528,1.0611,1.0638,1.0739,1.075,1.0765,1.0803,1.0806,1.0887,1.09,1.0943,1.1016,1.1032,1.1051,1.1039,1.1201,1.1203,1.1205,1.1173,1.1173,1.1173,0,0,0,0,0,1.0474,1.0514,1.0529,1.0549,1.0666,1.074,1.0755,1.0803,1.0804,1.0826,1.0874,1.0898,1.1038,1.1022,1.1041,1.1062,1.12,1.1203,1.1204,1.1173,1.1173,1.1173,0,0,0,0,0,0,1.0431,1.0525,1.0544,1.0611,1.0667,1.0749,1.0778,1.0802,1.0859,1.086,1.0917,1.0935,1.0997,1.1036,1.1017,1.1118,1.1121,1.1126,1.109,1.1091,1.1091,1.108,1.1045,0,0,0,0,0,1.0429,1.0482,1.0561,1.0613,1.064,1.0704,1.0738,1.077,1.0831,1.0854,1.0908,1.0966,1.1023,1.1059,1.1116,1.1179,1.1197,1.1202,1.1202,1.1202,1.1206,1.1242,1.1245,1.1212,1.1212,1.1212,0,0,1.0426,1.0484,1.0514,1.0606,1.0653,1.0706,1.0724,1.0779,1.0818,1.0863,1.0929,1.097,1.1038,1.1103,1.1134,1.1138,1.122,1.1205,1.1204,1.1209,1.1245,1.1248,1.125,1.1213,1.1213,1.1213,0,0,1.0447,1.0497,1.0545,1.0592,1.0663,1.0705,1.0717,1.0795,1.0824,1.0891,1.0926,1.0973,1.1071,1.1117,1.1154,1.1192,1.1215,1.1209,1.1209,1.1244,1.1246,1.1249,1.1262,1.1266,1.1213,1.1213,1.1213,0,1.0434,1.0516,1.0567,1.062,1.0659,1.0702,1.075,1.0793,1.0879,1.0905,1.0908,1.103,1.1079,1.1155,1.1164,1.1192,1.1207,1.12,1.1242,1.1245,1.1248,1.1261,1.1266,1.1211,1.1212,1.1212,1.1212,0,1.0496,1.0552,1.0582,1.0664,1.0706,1.0757,1.0815,1.0852,1.088,1.0921,1.0989,1.1049,1.1118,1.1139,1.1167,1.1219,1.1219,1.1231,1.1234,1.1249,1.1262,1.1268,1.121,1.121,1.121,1.1211,0,0,1.0494,1.0603,1.0614,1.0651,1.0733,1.0776,1.0829,1.0897,1.0927,1.0984,1.1029,1.111,1.1121,1.1163,1.1197,1.1226,1.1252,1.1235,1.1238,1.1236,1.1312,1.1302,1.1307,1.1268,1.1269,1.127,1.1306,0,1.0526,1.0622,1.0669,1.0744,1.0796,1.0837,1.0882,1.0937,1.0977,1.1026,1.107,1.1127,1.1138,1.1163,1.1194,1.1242,1.1268,1.124,1.131,1.1312,1.1292,1.1315,1.1305,1.1336,1.1312,1.1313,1.1314,0,1.0576,1.0633,1.0714,1.0789,1.0812,1.0852,1.0918,1.0965,1.1027,1.1054,1.11,1.1132,1.1188,1.1188,1.1266,1.1246,1.1277,1.1305,1.1307,1.1315,1.1313,1.1323,1.1347,1.1352,1.1322,1.1322,1.1321,0,1.0566,1.0663,1.0724,1.0755,1.0844,1.0871,1.0909,1.0971,1.1009,1.1066,1.1091,1.1153,1.1188,1.1235,1.1284,1.1279,1.1357,1.136,1.138,1.1379,1.1395,1.1393,1.1424,1.1415,1.1415,1.1415,1.1415,0,1.0596,1.0644,1.0721,1.0758,1.0812,1.0865,1.0917,1.0958,1.1013,1.1058,1.1098,1.1139,1.1201,1.1251,1.1289,1.1347,1.1363,1.1386,1.1395,1.1382,1.1379,1.1403,1.1402,1.1416,1.1416,1.1416,1.1415,0,1.0594,1.0648,1.0717,1.0795,1.0816,1.0852,1.092,1.0957,1.0999,1.1056,1.1072,1.1138,1.1198,1.1251,1.1331,1.1356,1.1416,1.1428,1.1395,1.14,1.1417,1.1414,1.1464,1.1473,1.1458,1.1458,1.1458,0,1.061,1.0648,1.073,1.0764,1.0801,1.0855,1.0893,1.0947,1.0985,1.1059,1.1087,1.115,1.1203,1.1297,1.1352,1.1413,1.1426,1.1439,1.1436,1.1421,1.1426,1.1423,1.1427,1.1439,1.1439,1.1439,1.1439,0,1.0632,1.0657,1.0711,1.0774,1.0819,1.0871,1.0925,1.095,1.1013,1.1054,1.1116,1.1157,1.1238,1.13,1.1367,1.1406,1.1433,1.144,1.1447,1.1434,1.1413,1.1425,1.1394,1.1438,1.1438,1.1438,1.1438,1.1438,1.064,1.0675,1.0738,1.0797,1.0843,1.0892,1.0931,1.0977,1.103,1.11,1.1129,1.1191,1.1252,1.1345,1.1384,1.1434,1.1438,1.145,1.1453,1.1455,1.1452,1.1405,1.1446,1.1446,1.1446,1.1446,1.1446,0,1.0664,1.0707,1.076,1.0834,1.088,1.0901,1.0961,1.0998,1.1053,1.1108,1.1159,1.123,1.129,1.1349,1.1412,1.144,1.1454,1.1455,1.1453,1.1462,1.1444,1.1431,1.1443,1.1443,1.1443,1.1443,1.1443,1.1443,1.0682,1.0742,1.0774,1.0857,1.0899,1.0961,1.0994,1.1039,1.1083,1.116,1.121,1.1248,1.1305,1.1372,1.1428,1.1444,1.1465,1.1462,1.1481,1.1464,1.1463,1.1463,1.1451,1.1466,1.1466,1.1495,1.1495,1.1495]},{"header":{"parameterUnit":"m.s-1","parameterCategory":1,"la1":30.2991,"la2":30.254,"lo1":-89.0895,"lo2":-89.0444,"dy":0.0017,"dx":0.0017,"nx":28,"ny":28,"refTime":"2025-07-20T21:00:00:Z","depth":0,"parameterNumber":3,"parameterNumberName":"V-component_of_WINDS"},"data":[0,0,0,0,0,0,0,0,0,0,0,0,0,0,0,0,0,0,0,0,0,0,0,0,0,0,0,0,0,0,0,0,0,0,0,0,0,0,0,0,0,0,0,0,0,0,0,0,0,0,0,0,0,0,0,0,0,0,4.3425,4.3424,0,4.3386,4.3386,4.3385,4.3321,4.3319,4.3318,4.3317,4.3278,4.3278,4.3278,0,0,0,0,0,0,0,0,0,0,0,0,0,4.3443,4.3443,4.3425,4.3424,4.3424,4.3386,4.3385,4.3385,4.3321,4.3319,4.3318,4.3317,4.3278,4.3278,4.3278,0,0,0,0,0,0,0,0,0,0,0,0,0,4.3423,4.3443,4.3425,4.3387,4.3383,4.3386,4.3385,4.3385,4.3321,4.3319,4.3318,4.3316,4.3278,4.3278,4.3278,4.3314,0,0,4.3278,4.3278,0,0,0,0,0,0,0,0,4.3424,4.3422,4.3393,4.339,4.3386,4.3356,4.3377,4.3361,4.3322,4.3345,4.3317,4.3315,4.3305,4.3303,4.33,4.3312,4.331,4.3278,4.3278,4.3278,4.3278,0,0,0,0,0,0,0,4.3426,4.3424,4.3409,4.3393,4.3388,4.3372,4.3368,4.3374,4.3336,4.3343,4.3338,4.3334,4.3303,4.33,4.3298,4.331,4.3278,4.3278,4.3278,4.3278,4.3351,4.3352,0,0,0,0,0,0,4.3433,4.3425,4.3411,4.3408,4.3401,4.3374,4.3368,4.3368,4.3335,4.3329,4.3336,4.3331,4.33,4.3298,4.3297,4.3337,4.3278,4.3278,4.3278,4.3349,4.3351,4.3353,0,0,0,0,0,0,4.3433,4.3432,4.3412,4.3415,4.3412,4.3375,4.3375,4.3368,4.3364,4.333,4.3323,4.334,4.3299,4.3296,4.331,4.3335,4.3278,4.3278,4.3347,4.3349,4.3352,4.3419,0,0,0,0,0,0,4.3434,4.3433,4.3446,4.3416,4.3412,4.3427,4.3376,4.3368,4.3365,4.3359,4.3332,4.3326,4.3297,4.331,4.331,4.3334,4.3278,4.3344,4.3348,4.3351,4.3414,4.3423,4.3431,0,0,0,0,0,4.3435,4.3466,4.3447,4.3445,4.3428,4.3428,4.3426,4.3392,4.3367,4.338,4.3358,4.3326,4.3332,4.3312,4.3312,4.3336,4.3342,4.3347,4.3351,4.341,4.3422,4.3431,0,0,0,0,0,0,4.35,4.3462,4.344,4.3462,4.3449,4.3417,4.3433,4.3405,4.3399,4.3393,4.3352,4.3347,4.3366,4.3352,4.3331,4.3369,4.3332,4.3337,4.3378,4.3388,4.3397,4.34,4.3278,0,0,0,0,0,4.3517,4.352,4.3486,4.3509,4.3504,4.347,4.3469,4.3444,4.3429,4.3423,4.3402,4.3388,4.3387,4.3387,4.3383,4.3412,4.3405,4.3428,4.3437,4.3444,4.3448,4.3462,4.3472,4.3367,4.3367,4.3367,0,0,4.3551,4.3531,4.3536,4.3522,4.3509,4.3513,4.3465,4.3472,4.3475,4.3424,4.3436,4.342,4.3402,4.3423,4.3432,4.3412,4.3476,4.3449,4.3455,4.3456,4.3468,4.3478,4.3487,4.337,4.3369,4.3369,0,0,4.3617,4.3602,4.362,4.3608,4.3588,4.3565,4.357,4.3542,4.353,4.3541,4.3503,4.3506,4.3504,4.3493,4.3487,4.355,4.3521,4.355,4.3595,4.361,4.3618,4.3625,4.3648,4.3656,4.3554,4.3554,4.3555,0,4.3663,4.3668,4.3632,4.3642,4.3637,4.3591,4.3609,4.3598,4.3579,4.3577,4.3556,4.3553,4.3538,4.3556,4.3572,4.3568,4.3572,4.3553,4.362,4.3626,4.3633,4.3654,4.3662,4.3558,4.3558,4.3557,4.3557,0,4.3726,4.373,4.3747,4.373,4.3727,4.374,4.3707,4.3708,4.3684,4.3664,4.3676,4.3656,4.3648,4.3651,4.3627,4.3666,4.3654,4.3627,4.3589,4.3647,4.3666,4.3674,4.3563,4.3562,4.3561,4.356,0,0,4.3831,4.3794,4.3801,4.3792,4.3768,4.3771,4.3783,4.3775,4.3777,4.3766,4.3775,4.3775,4.3749,4.3743,4.3718,4.373,4.3782,4.3701,4.37,4.3717,4.3823,4.3844,4.3854,4.3762,4.3763,4.3764,4.3825,0,4.3892,4.391,4.3878,4.3903,4.3907,4.3863,4.3874,4.386,4.3841,4.3842,4.3821,4.3822,4.3788,4.3784,4.3795,4.3773,4.3802,4.3768,4.377,4.3771,4.3776,4.3864,4.3886,4.3944,4.3832,4.3833,4.3834,0,4.3965,4.3958,4.3984,4.3958,4.3958,4.3968,4.3959,4.396,4.3944,4.3929,4.3922,4.3893,4.3903,4.3866,4.388,4.3857,4.3856,4.3846,4.3847,4.3846,4.3806,4.3866,4.3962,4.3971,4.3846,4.3845,4.3844,0,4.404,4.4036,4.4051,4.4045,4.4016,4.4024,4.4012,4.3994,4.3991,4.3983,4.3982,4.3975,4.3971,4.3967,4.3937,4.3913,4.3954,4.3914,4.3942,4.3943,4.3953,4.3952,4.405,4.3952,4.3952,4.3952,4.3951,0,4.4111,4.4129,4.4084,4.4094,4.4112,4.4076,4.4095,4.4079,4.4063,4.4069,4.403,4.4036,4.3996,4.3998,4.3974,4.3989,4.3987,4.3976,4.397,4.398,4.3981,4.3978,4.3974,4.3954,4.3953,4.3953,4.3952,0,4.4198,4.4169,4.4182,4.4153,4.4146,4.4162,4.4137,4.4144,4.4123,4.4131,4.413,4.4098,4.4098,4.4067,4.4061,4.4045,4.407,4.4056,4.4075,4.4071,4.41,4.4098,4.42,4.4212,4.4106,4.4107,4.4108,0,4.4246,4.4258,4.4231,4.4232,4.4222,4.4224,4.4221,4.4186,4.4185,4.4168,4.4177,4.4174,4.417,4.4172,4.4148,4.4143,4.4129,4.4165,4.4128,4.4138,4.413,4.4129,4.4131,4.4173,4.4174,4.4175,4.4176,0,4.4334,4.4319,4.4316,4.431,4.4308,4.43,4.4291,4.4294,4.4255,4.4256,4.4256,4.4252,4.4246,4.4244,4.4234,4.4222,4.4193,4.4188,4.4194,4.4204,4.4216,4.421,4.4097,4.4186,4.4185,4.4184,4.4183,4.4183,4.4402,4.4412,4.4394,4.4393,4.4382,4.4374,4.438,4.436,4.4359,4.4351,4.433,4.4333,4.4317,4.4301,4.4292,4.4294,4.4276,4.4285,4.4287,4.429,4.4296,4.4215,4.4292,4.4292,4.4291,4.4291,4.4291,0,4.4489,4.4475,4.4475,4.4462,4.4462,4.4434,4.4422,4.4424,4.4427,4.4414,4.4411,4.4411,4.4408,4.4384,4.4379,4.4385,4.4372,4.4385,4.4384,4.4382,4.4312,4.4307,4.4396,4.4396,4.4396,4.4396,4.4396,4.4396,4.4533,4.4548,4.4531,4.454,4.4526,4.4529,4.4525,4.4517,4.4507,4.4508,4.4506,4.449,4.4473,4.4466,4.4463,4.4456,4.4456,4.4474,4.4462,4.4397,4.4387,4.4377,4.4373,4.4474,4.4474,4.4532,4.4533,4.4533]}]]